San Jose, Costa Rica

5:35 AM CST on February 27, 2017 (GMT -0600)
Juan Santamaria International Airport

Weather History for MROC - July, 2013

Change the Weather History Date:

Tuesday, July 23, 2013

  Actual Average Record
Temperature  
Mean Temperature 75 °F -  
Max Temperature 85 °F 80 °F 87 °F (1997)
Min Temperature 65 °F 64 °F 60 °F (2006)
Cooling Degree Days 10    
Growing Degree Days 25 (Base 50)    
Moisture  
Dew Point 64 °F    
Average Humidity 73    
Maximum Humidity 100    
Minimum Humidity 48    
Precipitation  
Precipitation 0.00 in 0.33 in - ()
Sea Level Pressure  
Sea Level Pressure 29.95 in    
Wind  
Wind Speed 9 mph ()    
Max Wind Speed 17 mph    
Max Gust Speed -    
Visibility 7.6 miles    
Events Fog    
Averages and records for this station are not official NWS values.
T = Trace of Precipitation, MM = Missing Value Source: Averaged Metar Reports

Daily Weather History Graph

Daily Weather History Graph

Search for Another Location

Airport or City:

Trip Planner

Search our weather history database for the weather conditions in past years. The results will help you decide how hot, cold, wet, or windy it might be!

Date:

Astronomy

Jul. 23, 2013 Rise Set
Actual Time 5:25 AM CST 6:01 PM CST
Civil Twilight 5:02 AM CST 6:24 PM CST
Nautical Twilight 4:36 AM CST 6:50 PM CST
Astronomical Twilight 4:09 AM CST 7:17 PM CST
Moon 6:57 PM CST (7/23) 6:10 AM CST (7/23)
Length of Visible Light 13h 21m
Length of Day
12h 36m
Full, 99% of the Moon is Illuminated
Jul 23
Full
Jul 29
Last Quarter
Aug 6
New
Aug 14
First Quarter
Aug 20
Full

Hourly Weather History & Observations

Time (CST) Temp. Heat Index Dew Point Humidity Pressure Visibility Wind Dir Wind Speed Gust Speed Precip Events Conditions
12:00 AM 71 °F - 61 °F 62% 29.83 in 12 mi East 17.3 mph - -   Scattered Clouds
12:00 AM 71.6 °F - 60.8 °F 69% 30.02 in - East 17.3 mph - N/A   Clear
1:00 AM 69.8 °F - 60.8 °F 73% 30.02 in - ENE 9.2 mph - N/A   Clear
2:00 AM 68.0 °F - 60.8 °F 78% 30.00 in - NNE 8.1 mph - N/A   Clear
3:00 AM 68 °F - 61 °F 73% 29.85 in 12 mi North 4.6 mph - -   Scattered Clouds
3:00 AM 68.0 °F - 60.8 °F 78% 29.99 in - North 4.6 mph - N/A   Clear
4:00 AM 69.8 °F - 62.6 °F 78% 29.98 in - ENE 9.2 mph - N/A   Clear
5:00 AM 66.2 °F - 60.8 °F 83% 29.99 in 6.2 mi North 4.6 mph - N/A   Scattered Clouds
6:00 AM 69 °F - 62 °F 71% 29.86 in 12 mi NE 11.5 mph - -   Scattered Clouds
6:00 AM 69.8 °F - 62.6 °F 78% 30.01 in 6.2 mi NE 11.5 mph - N/A   Mostly Cloudy
7:00 AM 71.6 °F - 62.6 °F 73% 30.03 in 6.2 mi NE 4.6 mph - N/A   Mostly Cloudy
8:00 AM 73.4 °F - 62.6 °F 69% 30.03 in 6.2 mi ESE 10.4 mph - N/A   Mostly Cloudy
9:00 AM 76 °F - 64 °F 59% 29.86 in 12 mi ESE 10.4 mph - -   Scattered Clouds
9:00 AM 77.0 °F - 64.4 °F 65% 30.03 in 6.2 mi ESE 10.4 mph - N/A   Mostly Cloudy
10:00 AM 80.6 °F 82.3 °F 64.4 °F 58% 30.01 in 6.2 mi ESE 10.4 mph - N/A   Mostly Cloudy
11:00 AM 84.2 °F 85.0 °F 62.6 °F 48% 30.00 in 6.2 mi ESE 5.8 mph - N/A   Mostly Cloudy
12:00 PM 80.6 °F 81.5 °F 60.8 °F 51% 30.00 in 6.2 mi WSW 6.9 mph - N/A   Mostly Cloudy
1:00 PM 75.2 °F - 69.8 °F 83% 29.99 in 6.2 mi SW 9.2 mph - N/A   Mostly Cloudy
2:00 PM 77.0 °F - 69.8 °F 78% 29.97 in 6.2 mi WSW 8.1 mph - N/A   Mostly Cloudy
3:00 PM 75 °F - 69 °F 76% 29.79 in 12 mi WSW 8.1 mph - -   Partly Cloudy
3:00 PM 75.2 °F - 69.8 °F 83% 29.95 in 6.2 mi WSW 8.1 mph - N/A   Mostly Cloudy
4:00 PM 75.2 °F - 68.0 °F 78% 29.96 in 6.2 mi West 8.1 mph - N/A   Mostly Cloudy
5:00 PM 73.4 °F - 68.0 °F 83% 29.95 in 6.2 mi WSW 8.1 mph - N/A   Mostly Cloudy
6:00 PM 71 °F - 69 °F 92% 29.81 in 5 mi SW 4.6 mph - - Fog Light Fog
6:00 PM 71.6 °F - 69.8 °F 94% 29.96 in 5.0 mi SW 4.6 mph - N/A Fog Fog
7:00 PM 69.8 °F - 69.8 °F 100% 29.96 in 6.2 mi SSE 3.5 mph - N/A   Mostly Cloudy
8:00 PM 71.6 °F - 64.4 °F 78% 29.95 in 6.2 mi East 3.5 mph - N/A   Mostly Cloudy
9:00 PM 74 °F - 62 °F 58% 29.77 in 12 mi ESE 11.5 mph - -   Partly Cloudy
9:00 PM 73.4 °F - 62.6 °F 69% 29.95 in - ESE 11.5 mph - N/A   Clear
10:00 PM 73.4 °F - 62.6 °F 69% 29.97 in - East 12.7 mph - N/A   Clear
11:00 PM 73.4 °F - 62.6 °F 69% 29.98 in - East 10.4 mph - N/A   Clear